TimeCDT,TemperatureF,Dew PointF,Humidity,Sea Level PressureIn,VisibilityMPH,Wind Direction,Wind SpeedMPH,Gust SpeedMPH,PrecipitationIn,Events,Conditions,WindDirDegrees,DateUTC
12:53 AM,73.0,64.9,76,29.82,10.0,South,12.7,20.7,N/A,,Clear,180,2013-10-04 05:53:00
1:53 AM,72.0,64.9,78,29.82,10.0,South,11.5,17.3,N/A,,Clear,170,2013-10-04 06:53:00
2:53 AM,71.1,64.9,81,29.80,10.0,SSE,11.5,20.7,N/A,,Clear,160,2013-10-04 07:53:00
3:53 AM,71.1,64.9,81,29.81,10.0,South,12.7,20.7,N/A,,Clear,190,2013-10-04 08:53:00
4:53 AM,70.0,64.9,84,29.80,10.0,South,13.8,19.6,N/A,,Clear,170,2013-10-04 09:53:00
5:53 AM,69.1,64.9,87,29.81,10.0,South,10.4,-,N/A,,Clear,170,2013-10-04 10:53:00
6:30 AM,69.8,66.2,88,29.84,10.0,South,8.1,19.6,N/A,,Mostly Cloudy,170,2013-10-04 11:30:00
6:53 AM,70.0,66.0,87,29.81,10.0,South,11.5,17.3,N/A,,Overcast,170,2013-10-04 11:53:00
7:44 AM,71.6,66.2,83,29.84,10.0,South,13.8,19.6,N/A,,Scattered Clouds,180,2013-10-04 12:44:00
7:53 AM,71.1,66.0,84,29.81,10.0,South,11.5,23.0,N/A,,Partly Cloudy,180,2013-10-04 12:53:00
8:53 AM,73.0,66.9,81,29.82,10.0,South,16.1,25.3,N/A,,Partly Cloudy,190,2013-10-04 13:53:00
9:53 AM,75.9,68.0,76,29.81,10.0,South,13.8,24.2,N/A,,Clear,180,2013-10-04 14:53:00
10:53 AM,78.1,68.0,71,29.81,10.0,South,16.1,26.5,N/A,,Clear,190,2013-10-04 15:53:00
11:53 AM,81.0,68.0,65,29.81,10.0,SSW,11.5,25.3,N/A,,Clear,200,2013-10-04 16:53:00
12:53 PM,82.0,66.9,60,29.79,10.0,South,13.8,23.0,N/A,,Clear,180,2013-10-04 17:53:00
1:53 PM,86.0,66.9,53,29.77,10.0,South,15.0,27.6,N/A,,Clear,190,2013-10-04 18:53:00
2:53 PM,86.0,66.0,51,29.76,10.0,SSW,12.7,27.6,N/A,,Clear,200,2013-10-04 19:53:00
3:53 PM,86.0,64.9,49,29.76,10.0,South,17.3,29.9,N/A,,Clear,190,2013-10-04 20:53:00
4:53 PM,86.0,64.0,48,29.75,10.0,South,18.4,25.3,N/A,,Clear,180,2013-10-04 21:53:00
5:53 PM,84.0,64.9,53,29.75,10.0,South,13.8,19.6,N/A,,Clear,180,2013-10-04 22:53:00
6:53 PM,82.0,64.0,54,29.79,10.0,South,9.2,-,N/A,,Clear,190,2013-10-04 23:53:00
7:53 PM,80.1,64.9,60,29.79,10.0,South,10.4,-,N/A,,Clear,180,2013-10-05 00:53:00
8:53 PM,79.0,64.9,62,29.82,10.0,South,12.7,-,N/A,,Partly Cloudy,180,2013-10-05 01:53:00
9:53 PM,78.1,64.9,64,29.84,10.0,South,9.2,19.6,N/A,,Clear,190,2013-10-05 02:53:00
10:53 PM,75.0,61.0,62,29.86,10.0,West,4.6,-,N/A,Thunderstorm,Overcast,260,2013-10-05 03:53:00
11:37 PM,69.8,66.2,88,29.92,2.5,SW,13.8,-,0.14,Rain-Thunderstorm,Rain,220,2013-10-05 04:37:00
11:45 PM,69.8,66.2,88,29.91,7.0,SW,6.9,-,0.16,Rain-Thunderstorm,Light Rain,220,2013-10-05 04:45:00
11:53 PM,69.1,66.9,93,29.89,6.0,WSW,5.8,-,0.17,Rain-Thunderstorm,Light Rain,250,2013-10-05 04:53:00